Wind_Speed
14 14 14 14 14 15 16 16 17 17 17 16 16 15 16 15 15 15 15 14 14 14 14 15 15 15 15 15 16 18 19 21 20 21 26 27 22 16 14 13 13 13 15 15 12 11 10 11 9 8 9 9 8 10 10 10 11 8 3 4 5 5 5 3 4 4 4 7 8 11 12 2 7 11 17 19 21 26 21 19 20 16 22 29 32 41 39 36
13 14 14 15 15 16 16 17 17 17 17 17 16 16 16 15 15 15 15 14 14 15 15 14 14 15 15 15 15 16 19 20 21 26 30 27 22 19 17 17 15 14 16 15 13 13 12 12 9 6 8 9 8 9 9 7 8 7 3 3 6 5 4 3 4 6 7 9 13 13 10 2 8 13 15 11 11 23 21 17 28 30 28 32 37 39 35 36
13 14 14 15 15 16 17 17 17 17 16 16 17 16 16 15 14 14 15 15 14 15 16 15 14 14 14 14 14 14 17 18 22 29 28 23 23 22 20 19 18 17 17 13 11 14 14 12 8 5 8 10 11 12 10 7 6 7 6 4 5 5 5 7 8 11 16 15 15 13 6 9 4 9 14 11 10 16 16 15 23 30 34 36 37 36 35 35
13 14 14 15 16 16 16 17 16 16 16 16 17 17 16 15 13 13 14 15 15 15 15 16 15 14 14 13 12 12 12 14 18 22 19 16 18 22 23 21 20 20 19 15 12 14 14 13 11 9 8 9 14 14 10 10 7 5 7 5 5 5 5 10 13 16 21 22 20 11 6 10 13 4 18 17 11 6 13 26 29 35 41 39 38 37 36 34
14 14 15 15 16 16 16 17 16 15 16 16 16 17 16 14 13 13 14 15 15 15 15 15 15 14 13 12 10 8 5 6 7 6 3 5 12 19 24 22 21 21 19 17 16 16 15 16 15 10 6 7 11 10 8 16 13 5 6 7 8 8 6 13 18 19 19 24 22 7 7 6 11 7 20 17 9 7 18 32 37 44 47 43 42 39 36 36
14 15 15 16 17 17 17 17 16 14 15 16 15 16 16 15 14 14 14 14 15 15 14 15 15 14 13 11 8 7 6 2 2 5 6 6 3 14 22 24 23 21 19 18 18 18 17 17 14 8 5 4 7 7 9 18 15 6 8 9 13 15 10 14 20 18 17 19 13 5 7 7 10 7 11 10 12 18 23 31 38 44 46 44 43 40 38 36
15 16 17 17 18 18 17 17 16 15 15 16 16 16 17 16 15 14 15 15 15 15 15 15 14 13 13 11 9 9 12 13 6 6 5 7 6 3 11 19 22 22 21 21 21 20 19 17 14 10 5 4 5 8 13 16 12 7 7 8 14 18 16 21 24 19 19 17 9 6 9 8 9 4 4 5 14 22 22 28 36 41 43 42 41 40 38 35
16 17 18 18 18 18 18 18 16 15 15 16 16 16 16 16 16 16 16 16 16 15 15 15 14 13 12 9 7 6 16 23 13 6 3 3 4 3 2 9 16 21 23 24 24 23 20 18 17 13 5 6 8 7 11 11 8 7 7 9 12 15 18 22 22 18 18 18 11 9 8 7 6 7 8 11 20 26 28 31 35 38 40 40 40 39 35 33
18 18 18 18 19 19 19 19 18 16 15 15 16 16 17 17 17 17 16 16 16 15 15 15 14 13 10 8 5 5 21 27 16 9 4 1 2 4 4 5 10 17 22 24 25 24 22 20 23 19 8 8 11 11 11 6 4 7 9 13 12 14 19 20 18 16 14 13 10 8 9 9 4 11 7 12 25 30 33 34 34 37 38 36 37 37 34 32
20 19 18 18 19 19 20 20 19 17 16 16 16 17 17 18 18 18 17 16 16 15 15 14 13 12 8 8 2 5 23 25 18 19 14 7 5 7 9 7 8 14 18 22 24 26 26 24 25 22 12 10 10 11 11 6 6 10 11 13 12 14 20 19 16 13 11 10 10 6 6 12 3 7 3 11 27 33 35 33 32 34 35 35 34 34 33 32
20 20 19 18 18 20 21 21 20 18 17 18 18 18 18 19 19 18 17 16 15 15 15 13 13 11 9 8 6 12 22 20 21 26 24 19 13 11 14 11 11 13 16 19 22 27 29 27 24 16 9 8 9 10 11 10 12 15 14 12 11 13 16 15 13 9 7 7 11 9 3 9 7 4 10 17 27 36 36 31 31 31 32 33 32 32 31 31
21 21 20 19 18 20 21 21 20 19 18 18 18 19 19 19 18 17 17 16 16 15 14 13 11 10 9 11 19 26 22 14 15 22 24 23 17 16 18 16 15 14 13 15 19 25 27 28 24 15 9 6 6 6 10 13 14 16 12 7 9 8 9 12 12 10 8 7 13 10 1 5 6 3 20 27 27 33 35 31 30 31 32 31 30 31 30 29
21 21 22 22 19 19 20 21 21 20 19 19 19 19 19 19 17 16 16 16 16 15 14 13 11 10 9 16 30 33 25 18 16 18 19 18 17 19 21 19 20 17 13 11 14 20 25 27 23 20 19 10 6 7 11 14 10 11 7 4 5 5 5 9 9 10 9 8 15 11 1 6 6 5 22 30 28 30 31 30 30 30 32 31 31 31 31 29
21 22 23 23 21 20 20 21 21 21 21 20 20 20 20 18 16 15 16 16 16 14 13 11 10 9 10 21 31 30 28 27 28 26 20 17 16 19 21 20 20 21 18 13 11 14 19 23 22 20 21 16 13 13 14 11 6 5 4 2 3 2 5 8 7 8 6 8 17 12 2 7 7 7 22 31 32 32 28 28 30 30 32 33 33 33 31 28
20 23 23 24 23 21 20 20 21 22 21 21 20 20 19 16 14 15 15 14 11 12 12 9 9 9 11 23 27 22 21 24 30 29 23 20 19 20 22 20 18 21 22 18 13 12 13 16 20 17 15 17 16 11 7 5 3 2 2 4 2 3 5 8 6 8 7 6 14 11 2 7 8 8 25 31 32 33 29 28 28 29 31 33 35 33 31 28
20 22 23 23 25 22 20 20 21 21 21 21 21 20 17 14 13 13 12 9 7 9 8 4 5 6 6 15 18 15 15 18 24 25 24 24 23 21 20 16 14 15 21 22 16 16 15 13 17 17 14 11 8 5 3 4 4 2 3 4 3 3 3 5 6 6 9 5 7 9 4 4 6 9 27 32 30 32 29 27 28 29 32 34 35 33 32 30
18 21 22 23 25 23 20 20 21 21 22 22 22 20 15 12 12 12 8 4 4 4 3 2 2 3 10 15 14 14 16 18 21 23 25 26 24 21 17 13 12 11 17 21 17 18 18 13 11 11 12 8 3 5 4 5 5 3 1 3 4 4 3 3 5 5 6 5 5 7 6 6 5 9 26 30 29 29 27 27 28 30 32 34 35 34 33 32
18 20 21 22 24 23 20 21 22 22 23 22 21 18 13 10 10 10 6 3 2 1 3 4 2 1 11 15 13 14 12 13 17 22 24 25 24 21 17 14 12 9 11 15 16 18 16 11 7 4 5 6 4 6 6 6 6 4 3 3 4 3 4 5 5 4 5 6 6 6 6 10 8 5 20 29 29 27 27 30 30 30 33 34 34 34 34 34
18 19 21 21 23 23 21 21 22 22 23 22 19 15 11 8 7 8 7 7 7 4 2 9 12 4 8 11 12 13 10 9 12 16 21 23 23 21 18 15 12 9 7 7 10 15 12 6 6 6 5 7 8 8 7 5 6 7 6 4 4 5 5 5 5 5 5 6 7 8 8 9 10 6 12 24 28 26 28 30 29 29 31 33 33 32 33 34
18 18 20 21 22 24 22 22 23 22 21 20 17 12 7 3 4 5 7 12 14 13 13 14 19 18 22 24 18 11 11 11 10 11 17 21 23 21 19 17 12 9 6 4 6 11 11 6 6 8 7 8 9 8 7 5 6 7 5 4 6 5 6 6 5 7 5 6 8 12 11 8 11 10 8 21 26 22 23 25 24 27 29 30 31 30 31 31
18 18 19 21 21 23 23 23 23 20 19 17 16 14 9 4 2 2 4 11 19 22 23 24 23 26 30 32 27 19 17 15 12 11 13 20 24 19 17 15 8 5 6 6 5 8 10 8 8 8 6 7 8 7 8 8 8 7 5 5 5 5 6 6 5 7 6 6 8 12 10 8 11 11 7 17 19 17 21 23 23 27 28 28 29 30 31 31
18 18 18 21 21 22 22 22 21 18 15 13 14 15 11 8 5 6 7 11 22 25 25 27 27 31 35 35 33 26 17 14 17 16 11 19 26 18 13 12 6 3 5 6 6 5 7 9 8 8 6 7 7 8 9 8 8 6 5 4 5 5 4 5 5 6 5 5 7 11 10 9 11 10 5 11 15 20 28 31 31 32 30 29 31 32 33 34
18 18 18 20 20 21 22 21 19 14 12 11 12 12 12 16 14 13 11 9 20 24 23 27 30 34 37 37 31 21 14 12 15 17 13 18 26 23 15 9 6 6 6 7 9 7 5 7 8 7 7 8 7 8 9 7 7 6 5 4 5 5 3 3 5 5 5 7 7 9 9 6 8 5 3 8 15 25 32 33 35 38 38 38 38 38 39 39
18 18 18 19 19 21 21 21 15 11 12 12 10 10 16 20 16 14 12 7 12 17 18 25 30 34 37 34 23 14 17 18 16 17 15 17 25 24 16 11 8 7 8 9 11 10 5 5 11 10 8 10 8 7 10 8 6 7 7 6 6 8 6 4 4 5 4 8 6 4 2 4 6 4 5 7 9 22 29 27 27 31 35 37 36 36 38 40
18 18 18 18 18 19 20 19 12 10 13 10 9 13 17 16 9 6 9 5 6 10 11 14 20 29 33 25 17 16 16 17 21 20 16 19 25 20 13 15 11 8 10 10 10 9 6 7 14 13 9 11 9 7 9 8 6 8 8 9 11 11 6 2 2 5 3 7 4 7 4 5 5 4 8 6 4 13 21 20 21 23 26 30 32 32 34 34
18 17 17 16 18 18 19 16 10 11 12 8 9 11 12 9 4 0 3 2 4 5 4 5 10 14 16 15 17 19 10 12 23 24 17 20 29 25 12 11 10 9 11 8 5 5 5 8 12 13 11 11 10 8 8 8 6 7 6 9 13 12 5 3 4 2 1 6 5 7 8 5 3 3 8 7 8 12 14 13 18 24 26 28 31 32 33 33
17 17 16 16 17 17 16 14 12 10 9 8 7 6 8 7 4 1 1 2 4 3 2 5 8 4 7 16 19 15 4 7 15 21 20 20 29 31 14 8 8 9 9 7 4 4 7 10 10 12 12 9 9 8 8 9 7 6 5 9 11 10 6 5 5 4 4 4 5 4 7 2 2 6 6 7 12 12 11 11 14 20 25 27 29 32 34 35
16 17 16 15 16 16 14 15 15 8 4 6 6 4 7 6 2 2 0 2 2 4 2 5 8 3 8 19 22 16 8 6 4 12 21 19 25 28 13 8 9 9 10 9 6 5 8 12 11 12 11 8 9 9 8 10 7 7 5 7 9 7 6 7 6 6 4 1 5 5 5 3 3 5 1 8 13 11 12 13 13 17 24 27 29 31 32 33
16 17 16 14 16 15 12 15 14 6 4 6 5 4 6 6 1 0 1 3 1 3 2 5 6 3 11 17 19 18 13 7 1 8 17 17 21 22 11 10 11 9 11 8 5 6 8 13 13 12 10 8 9 9 10 12 8 6 6 7 6 5 5 6 6 5 1 1 6 8 6 4 3 5 2 6 8 11 11 11 12 17 25 28 28 31 31 31
16 17 16 14 16 14 12 16 13 6 7 8 7 5 3 3 2 1 2 3 2 1 1 6 6 7 14 12 9 14 12 8 7 6 12 13 15 17 14 15 11 6 8 7 6 6 7 15 16 10 9 10 10 10 12 13 9 5 6 7 5 1 2 3 3 3 2 2 8 9 8 7 2 5 4 3 4 11 12 9 10 16 23 26 28 32 33 32
17 17 16 15 16 13 14 14 7 5 7 8 7 2 2 2 1 2 3 2 3 2 2 3 4 9 15 9 7 10 8 7 7 4 6 8 8 9 9 11 8 3 4 6 7 7 6 10 11 8 11 12 10 10 10 12 10 6 5 6 4 3 1 1 1 1 4 5 7 7 7 8 5 5 3 5 5 10 18 15 14 14 21 28 32 35 34 32
17 17 16 15 15 14 16 13 6 5 6 6 6 1 3 2 1 4 4 5 3 1 2 1 2 7 11 8 7 9 7 5 4 2 4 5 4 5 5 6 5 4 4 4 5 6 7 6 6 8 14 14 10 7 7 8 8 7 5 5 4 2 1 3 2 2 4 6 7 5 6 5 6 4 3 9 6 8 14 19 24 23 26 32 34 36 34 33
17 16 15 15 15 16 16 13 8 6 3 6 5 3 3 1 2 4 4 4 2 3 5 6 5 3 11 7 5 10 8 5 3 2 4 5 4 4 5 5 6 6 4 3 4 5 5 6 6 8 10 13 12 7 6 6 6 8 7 5 5 3 3 4 3 2 3 5 6 4 7 4 4 1 6 10 4 9 9 16 29 32 33 35 34 34 33 32
16 15 15 15 16 16 15 13 9 6 2 6 4 3 3 3 3 3 3 3 4 6 7 8 12 5 11 8 5 10 7 5 4 3 4 5 5 4 5 6 6 6 4 4 4 6 6 7 8 7 5 10 13 9 8 7 5 7 6 6 5 5 5 4 4 3 4 4 4 1 4 2 2 2 7 7 5 17 16 16 23 27 29 31 30 31 31 31
14 14 14 15 16 15 14 12 8 6 3 5 3 2 4 4 2 2 2 2 4 8 10 10 11 4 9 8 6 10 8 4 5 4 3 5 5 4 5 6 6 6 4 4 3 4 7 7 6 7 7 9 10 9 9 8 6 6 4 5 5 6 6 2 4 6 5 3 2 2 1 0 1 2 5 6 11 17 20 20 21 23 25 28 28 28 28 29
13 13 13 16 16 11 7 7 8 9 4 3 0 3 5 3 2 2 2 5 6 9 12 9 6 2 4 5 5 10 9 4 5 4 2 4 5 5 5 5 6 7 5 5 3 2 6 6 4 6 9 9 10 10 9 9 6 3 4 5 5 6 7 4 3 2 4 5 1 0 2 1 1 2 5 7 10 11 14 15 16 19 23 26 26 26 27 28
12 12 14 15 13 7 4 5 9 11 7 4 3 3 3 3 4 5 5 9 12 11 9 5 3 4 1 0 0 6 8 4 4 4 2 3 4 5 6 5 7 9 8 6 3 2 5 4 6 6 9 11 12 12 10 10 9 5 6 7 4 4 3 4 3 1 3 4 2 0 4 4 3 1 2 7 10 10 10 11 12 14 18 22 23 25 27 28
11 10 12 9 8 5 9 6 8 12 7 4 4 4 3 4 5 7 10 11 12 10 6 2 2 3 3 1 4 0 5 5 4 5 3 3 4 5 7 6 7 10 11 10 4 2 3 1 7 6 7 8 8 10 7 7 7 5 6 5 5 4 2 1 3 2 3 4 0 1 4 5 3 3 6 10 10 10 10 10 10 10 13 17 20 24 28 28
6 6 7 4 6 7 13 9 10 12 6 4 5 4 3 5 8 12 15 13 9 7 4 2 2 2 2 1 2 3 1 3 4 4 3 4 4 7 10 8 7 10 12 12 6 4 2 2 4 3 4 4 3 5 6 6 2 0 3 4 3 4 4 3 3 3 4 3 2 3 3 3 2 4 10 14 12 12 12 10 8 9 12 15 20 24 27 28
2 4 4 5 7 7 14 13 14 11 4 3 4 4 5 7 10 14 17 14 8 5 4 2 3 1 2 1 2 2 2 1 3 3 2 6 5 5 9 9 6 10 13 11 7 4 1 2 3 4 3 2 3 3 5 6 4 2 3 4 3 3 2 2 2 2 4 4 3 4 3 4 3 3 8 12 11 10 11 10 8 12 15 17 19 23 26 27
3 3 4 7 6 9 19 15 11 7 3 3 3 5 7 8 9 14 19 18 11 9 10 8 5 3 1 1 2 1 1 2 1 1 1 6 4 1 9 12 8 9 11 8 6 5 2 3 3 3 2 1 4 2 3 3 4 4 5 5 5 5 4 3 1 2 3 4 4 5 3 5 4 1 4 8 8 7 10 11 10 15 20 20 20 23 25 25
3 2 6 10 6 12 22 12 5 5 4 4 6 7 9 9 10 12 17 18 13 11 12 11 9 5 3 2 3 2 1 2 2 2 1 4 4 2 10 17 14 10 9 5 5 6 4 3 3 3 2 4 6 4 3 4 4 3 4 4 5 4 4 5 3 3 2 3 3 4 3 4 4 1 5 9 9 11 13 14 13 17 21 21 22 24 23 23
3 6 9 13 9 12 19 6 3 5 3 5 8 11 11 10 9 11 13 14 10 9 9 7 5 3 2 4 4 2 1 1 2 3 1 2 3 3 4 13 15 9 6 5 4 5 4 2 2 2 3 3 6 7 2 3 3 2 2 3 5 4 4 5 4 3 3 3 3 3 1 3 3 1 7 13 15 16 17 18 18 18 20 23 24 25 23 22
8 11 10 11 5 12 14 2 2 5 4 6 8 10 12 11 12 12 11 11 8 6 7 6 3 3 3 4 3 2 2 1 2 4 1 2 3 3 8 1 7 7 5 5 6 7 5 2 3 2 1 3 3 5 5 3 2 1 2 3 4 6 6 3 1 3 3 3 5 6 2 2 1 3 10 15 15 15 16 20 22 20 21 23 25 25 23 20
8 7 5 5 2 10 8 2 2 3 3 4 6 8 10 10 13 14 13 13 12 9 9 8 3 4 4 3 2 2 3 3 1 3 1 2 3 2 10 12 3 7 6 7 11 10 6 3 4 4 4 3 3 3 2 3 2 2 2 2 3 6 7 4 2 3 4 2 3 5 4 2 3 7 12 13 13 12 14 20 23 23 24 25 25 24 20 17
5 3 1 2 1 6 6 5 1 2 1 2 4 6 7 7 9 13 13 14 16 16 12 9 5 1 3 4 3 1 2 2 0 3 2 2 3 1 6 12 7 5 6 5 11 10 4 2 4 6 6 6 5 3 2 1 2 2 6 5 3 4 6 5 3 3 5 3 3 1 7 9 8 11 14 14 13 13 13 17 21 23 25 25 25 23 20 18
3 2 1 2 1 3 4 4 3 3 3 2 2 3 5 6 7 9 9 9 12 11 7 3 2 2 4 3 3 1 2 2 3 3 3 2 2 3 6 8 7 6 9 5 6 7 4 2 4 6 6 6 5 4 5 3 4 1 4 7 6 1 7 7 3 4 5 6 2 2 11 14 9 11 15 15 15 13 12 17 21 23 24 24 25 25 24 23
2 3 3 2 2 1 1 3 4 5 6 5 3 3 6 8 8 8 7 6 10 9 1 2 4 4 4 4 3 1 1 4 4 3 3 2 3 5 6 6 7 7 8 5 3 5 5 2 3 4 6 6 7 7 5 3 3 1 3 6 7 2 7 6 4 7 8 6 5 10 15 15 12 12 13 14 16 17 17 23 26 26 25 24 25 27 27 25
3 4 4 3 3 4 5 6 6 6 6 5 4 4 6 9 10 9 7 4 6 7 2 1 3 5 5 4 4 1 1 2 2 4 2 3 3 3 4 3 7 8 6 4 3 3 4 1 2 3 7 7 10 10 8 6 4 3 4 5 6 2 6 6 3 4 6 7 11 15 14 11 11 11 10 12 18 22 24 27 29 28 27 26 25 27 27 24
5 5 6 6 6 7 8 7 5 4 4 4 4 4 5 7 7 8 6 2 3 5 2 1 2 4 5 4 3 2 2 3 3 4 2 1 1 2 2 1 4 8 5 3 2 3 3 2 2 3 5 4 7 11 10 7 4 3 4 5 8 7 7 7 6 6 5 6 12 15 10 5 6 10 13 15 20 23 23 24 26 26 28 28 26 25 26 25
8 9 10 7 5 5 4 3 2 2 1 2 3 3 3 4 5 6 6 4 3 3 2 3 4 4 4 4 2 2 3 2 4 6 4 3 1 1 1 1 2 5 5 3 2 3 3 3 2 4 5 2 4 8 8 6 6 4 5 7 7 4 4 4 2 4 7 11 14 14 8 4 6 11 15 17 18 19 19 21 24 24 26 28 26 24 25 26
13 14 14 8 4 3 4 3 1 1 1 1 2 4 5 7 7 4 4 4 3 3 6 6 5 3 2 3 4 4 4 4 6 5 2 6 8 7 4 2 3 3 2 1 3 3 3 4 2 3 5 2 4 6 7 6 6 3 3 4 5 3 2 3 2 3 10 14 12 9 8 8 11 14 13 13 13 14 17 20 23 24 25 25 25 25 26 26
Wind_Direction
332 331 332 332 332 329 326 327 326 324 323 321 320 317 313 312 313 311 308 305 302 301 297 290 282 276 271 267 265 264 266 265 261 256 251 248 245 242 236 218 206 208 219 222 224 228 222 218 212 189 199 214 234 245 237 245 248 241 217 201 229 226 224 196 200 244 278 304 306 323 324 245 127 111 110 108 106 102 98 95 104 116 133 144 147 150 154 159
329 329 331 332 331 327 327 327 325 325 323 322 320 315 312 311 313 313 309 305 302 300 299 293 286 280 274 270 268 268 269 269 270 262 251 247 251 245 231 220 207 202 216 220 219 221 221 217 205 188 210 224 232 236 235 248 234 206 172 209 224 221 233 235 246 286 295 300 298 305 324 345 145 142 124 111 101 100 94 91 106 111 122 137 145 150 157 161
327 328 330 332 330 328 327 325 325 324 323 322 318 315 314 312 311 312 309 307 305 302 301 296 288 283 278 271 268 271 275 280 279 269 258 254 253 244 230 222 211 208 213 211 211 215 219 218 210 227 247 241 235 237 241 249 238 210 200 227 240 238 263 271 275 284 287 294 291 291 342 20 31 149 136 124 126 110 114 125 118 121 133 142 149 153 158 163
326 327 328 330 328 328 326 324 325 323 322 321 317 316 313 311 309 307 306 307 307 305 303 299 290 283 279 271 267 271 286 301 288 275 272 264 249 238 232 223 214 214 213 205 208 213 220 225 229 248 262 252 243 242 241 241 243 214 199 207 230 246 276 268 274 281 289 298 286 289 30 15 353 138 147 130 119 108 146 150 143 143 146 149 154 157 160 163
324 324 325 326 327 328 325 323 325 323 321 319 317 315 313 312 307 304 306 306 307 306 306 304 295 286 278 267 264 261 287 328 290 265 298 260 230 225 223 219 217 217 213 211 215 219 225 230 237 251 253 248 247 242 238 238 240 251 247 239 229 235 263 264 271 275 282 294 286 307 35 347 356 97 149 141 133 176 171 159 153 153 153 155 157 160 161 162
321 321 323 325 326 326 324 324 325 324 320 317 316 312 311 309 303 303 304 306 309 306 306 306 300 292 278 266 259 232 207 226 158 134 103 88 173 213 211 210 214 214 212 214 219 222 226 230 236 241 229 237 242 229 236 239 233 247 270 262 249 240 245 259 265 267 271 287 291 329 347 339 22 70 155 167 172 174 170 160 154 153 155 156 158 160 161 163
319 320 322 324 324 325 325 324 324 322 317 315 312 309 310 309 304 303 301 303 306 308 309 307 306 299 285 271 252 226 223 228 192 137 129 84 73 166 197 204 210 211 210 213 217 219 224 229 228 223 222 249 245 231 238 242 231 229 258 262 255 245 240 251 257 266 271 269 278 324 331 359 32 50 99 121 157 159 158 152 149 149 152 155 156 159 161 162
319 319 320 322 323 325 325 324 322 318 313 312 309 307 307 306 304 302 301 302 301 306 309 307 311 304 294 283 264 250 240 227 198 152 153 83 44 32 142 194 207 214 214 216 217 217 222 227 226 222 216 236 240 249 249 250 242 229 248 260 259 251 244 251 255 264 272 259 266 315 324 344 46 89 75 97 131 145 147 146 145 147 151 155 156 158 158 159
317 318 318 320 322 324 324 324 321 315 311 309 307 304 301 300 301 300 301 302 301 303 305 308 310 305 301 285 287 278 245 228 199 189 209 91 3 310 275 215 212 217 220 222 221 222 224 223 223 218 212 245 250 262 262 254 249 230 231 248 253 256 253 255 258 261 264 244 244 295 311 311 85 99 67 110 129 138 142 142 145 148 151 156 157 157 157 158
316 318 318 320 321 323 324 322 318 315 312 307 303 300 296 295 296 298 299 302 302 301 302 305 305 306 297 270 282 258 246 236 216 215 226 243 256 256 250 243 230 224 223 224 223 223 222 218 218 218 227 265 265 259 257 231 247 259 253 257 256 259 259 254 257 260 251 218 207 224 278 288 267 108 77 131 135 137 138 141 147 148 151 155 156 157 159 160
315 317 318 319 320 322 323 321 316 312 308 304 301 296 293 292 294 297 299 300 301 301 301 300 302 300 285 260 227 236 244 238 226 222 229 246 247 229 228 234 237 230 226 226 225 221 219 217 216 219 231 257 262 266 276 262 263 273 275 284 278 274 275 262 256 249 229 204 198 192 225 290 306 111 149 151 144 141 139 142 148 149 151 154 156 159 161 163
311 314 317 318 319 321 322 320 316 310 303 300 300 299 295 292 294 298 299 299 297 298 296 294 298 289 282 264 236 234 239 230 224 225 226 236 239 223 218 224 233 231 225 226 228 222 217 217 217 220 228 242 259 269 289 280 270 271 269 278 284 295 292 271 264 235 203 203 200 182 104 301 307 153 154 154 150 144 140 143 148 150 152 153 155 158 161 164
306 310 316 317 317 320 321 318 316 312 304 298 296 296 295 292 293 296 298 300 295 294 293 287 287 281 278 263 245 240 245 241 238 236 217 217 230 224 214 218 228 230 229 233 234 223 216 217 219 226 236 251 272 265 289 298 287 271 257 223 263 311 294 267 261 220 186 196 192 166 153 262 275 207 160 155 153 145 140 145 150 152 153 152 151 154 157 161
300 304 313 316 316 319 320 318 316 313 307 301 297 294 294 291 290 293 294 296 294 294 292 283 281 276 266 264 258 254 256 254 255 247 219 209 227 224 214 214 224 227 231 244 241 220 213 218 222 231 243 250 262 275 295 310 310 289 282 243 225 243 272 270 246 200 174 204 187 157 182 234 261 221 167 160 156 148 145 150 154 156 155 152 151 152 154 159
294 300 308 315 317 317 318 319 317 314 309 305 302 298 295 290 289 290 287 286 291 295 289 278 272 267 270 274 272 264 253 252 253 239 214 216 229 223 214 213 223 229 231 241 239 219 213 219 220 228 246 248 251 267 294 306 307 306 269 288 271 182 262 290 258 192 170 210 182 159 197 229 256 214 170 166 161 153 150 155 158 158 156 153 152 153 155 161
291 297 303 312 317 317 317 319 319 316 313 309 304 302 298 293 289 282 275 276 296 296 282 286 273 248 270 281 275 263 246 243 242 226 209 217 225 216 208 210 220 224 227 231 233 226 223 225 226 230 237 241 233 221 267 298 303 316 197 248 259 186 237 290 286 219 184 192 178 178 201 226 261 189 170 170 165 157 152 158 161 158 156 153 152 154 157 161
287 294 298 307 315 317 316 318 320 316 314 311 306 303 299 291 281 266 256 261 307 292 227 94 36 244 257 267 272 268 253 243 237 226 217 217 218 213 209 217 211 201 215 220 223 228 227 226 228 234 230 224 181 161 218 250 250 287 222 229 247 203 202 230 285 277 191 181 202 207 208 224 252 163 167 174 168 160 155 159 164 160 157 154 154 157 159 162
284 290 295 302 310 315 315 317 319 317 316 312 308 304 298 289 269 252 241 227 237 201 198 204 139 290 260 251 267 282 270 251 241 232 222 214 214 215 219 224 207 196 213 213 218 223 224 222 206 214 226 211 190 172 201 216 198 221 206 209 258 230 215 211 247 266 182 187 215 216 221 231 249 169 168 179 172 162 160 162 166 163 158 156 158 159 161 165
280 286 292 298 306 312 314 317 318 319 318 313 308 303 296 285 259 252 247 217 199 185 244 216 189 204 277 264 279 299 299 292 277 250 227 213 211 212 217 222 218 225 226 200 215 214 205 205 192 206 223 209 209 194 197 195 170 196 199 187 224 232 237 217 230 247 186 188 218 216 222 226 237 224 168 178 175 165 165 165 166 165 159 158 159 159 160 162
277 283 289 294 303 309 313 318 319 320 320 316 317 315 307 279 248 253 239 227 234 252 269 247 216 230 265 273 277 291 293 294 299 262 228 210 204 206 212 218 225 238 228 171 202 206 190 196 213 211 212 211 218 196 183 201 199 206 201 203 226 229 243 227 224 244 188 175 225 220 220 226 229 230 171 166 171 168 168 167 167 165 161 158 156 155 155 156
276 279 286 292 299 306 312 318 321 322 320 318 321 318 313 307 275 301 277 258 268 272 267 261 247 247 263 269 267 278 293 291 284 264 232 207 200 202 208 206 207 228 216 186 194 200 191 210 223 206 201 210 212 181 174 209 226 227 213 219 245 233 245 247 233 242 197 176 233 225 217 232 234 232 183 154 161 175 175 168 169 166 159 157 152 151 151 151
273 276 284 290 297 305 311 318 322 321 315 311 309 303 309 337 331 320 321 283 281 280 268 263 254 250 261 265 264 272 284 281 274 262 228 203 200 196 194 190 183 199 200 190 195 202 205 222 218 193 192 200 203 185 182 206 220 232 224 210 246 242 258 287 277 255 206 184 234 225 213 227 239 238 196 156 159 178 182 173 170 164 154 155 154 151 150 150
271 276 282 287 296 304 309 318 321 315 301 290 293 302 331 351 345 325 314 284 284 282 264 254 245 242 253 259 259 261 252 252 266 252 218 200 198 192 186 183 185 196 198 199 198 196 209 223 204 187 187 192 207 198 187 210 223 225 216 197 238 241 225 271 281 276 223 209 222 213 210 236 257 262 234 202 174 175 184 178 170 164 159 162 162 157 155 154
271 274 278 284 294 301 308 317 315 298 281 276 294 331 351 352 348 327 306 279 284 284 263 250 243 239 243 248 247 235 230 236 246 241 219 198 192 189 193 191 185 202 211 210 205 205 221 203 182 186 195 192 205 204 189 206 226 231 221 200 230 240 217 214 270 313 266 236 220 158 173 271 261 246 236 235 176 170 181 175 169 167 160 160 158 156 157 157
269 270 274 283 291 298 309 316 307 281 272 280 319 340 349 351 359 326 297 285 276 278 275 251 234 238 239 238 232 219 228 240 240 235 223 207 192 184 193 194 190 212 213 211 211 212 232 202 179 188 205 198 202 210 195 191 209 243 232 205 224 240 230 220 310 350 329 260 234 129 154 262 267 227 216 217 139 164 174 164 161 159 151 150 151 153 156 157
269 267 271 280 286 296 308 312 306 290 278 287 322 335 352 6 52 117 262 303 287 257 264 210 202 235 233 212 211 214 232 260 244 236 234 224 200 185 186 189 192 212 206 208 222 208 217 205 184 188 200 200 207 217 201 176 184 238 218 187 219 235 229 256 291 326 271 257 247 154 172 242 289 226 215 183 140 161 164 152 155 151 147 149 150 154 157 158
268 265 268 273 281 292 303 305 304 302 292 298 317 344 20 58 100 26 228 273 278 205 161 173 183 222 187 178 186 186 207 261 242 235 235 226 197 186 188 181 183 204 192 190 222 193 183 200 198 192 195 200 209 217 199 169 174 228 193 169 212 224 201 221 244 237 228 261 281 192 158 149 247 231 218 150 144 154 144 140 151 147 146 149 152 157 159 160
266 261 264 267 275 284 297 303 300 303 317 319 326 3 35 67 129 308 243 268 251 160 161 181 192 225 161 170 173 175 226 254 213 225 227 218 190 183 192 188 178 191 191 191 211 187 173 195 200 189 196 208 208 212 199 178 192 231 204 188 214 198 177 200 216 238 241 283 281 242 156 127 262 260 170 128 148 151 140 146 150 143 146 150 153 158 158 159
269 258 258 262 270 278 291 293 288 300 355 350 347 354 25 48 44 317 180 264 237 184 233 160 179 192 150 157 167 188 231 259 194 200 205 209 194 185 194 191 175 188 204 202 201 192 184 200 202 190 200 210 204 209 204 197 212 223 204 217 224 167 169 200 201 221 224 112 248 235 176 146 265 270 133 125 158 157 144 148 148 145 149 151 151 154 155 157
275 259 254 257 264 276 284 278 273 291 334 349 352 344 17 61 65 93 196 252 283 264 129 143 172 157 147 147 166 197 226 251 257 211 184 201 197 187 195 193 180 181 208 210 210 220 205 202 206 202 204 205 202 208 208 207 209 200 199 224 245 147 149 205 195 172 152 230 247 231 196 158 213 267 176 149 194 159 143 138 145 145 145 147 149 152 155 157
279 262 253 252 260 272 277 277 282 280 295 329 342 341 89 72 53 194 211 296 324 318 74 152 189 146 151 158 163 195 224 244 257 239 179 196 191 182 185 189 187 160 191 211 218 245 243 208 209 210 203 198 201 211 214 210 203 201 205 198 229 301 356 248 333 120 178 235 252 228 198 168 185 249 248 310 296 159 149 148 153 151 146 147 150 153 156 156
280 263 249 247 255 265 269 281 309 259 262 333 351 40 99 62 331 223 257 331 341 271 351 313 206 155 165 170 154 181 211 232 243 240 191 181 174 189 174 175 181 159 192 211 198 233 249 232 217 209 206 197 194 206 214 213 200 206 214 159 169 243 218 202 226 196 202 241 250 197 156 174 211 233 317 321 298 170 162 158 155 153 149 148 149 152 154 152
284 269 250 245 252 259 267 286 297 247 255 5 9 55 89 147 224 227 258 318 341 310 340 346 321 190 166 169 169 178 199 225 209 212 220 178 158 204 211 192 164 148 179 183 169 206 238 261 234 208 207 198 196 196 196 209 197 199 205 158 157 168 166 199 208 210 222 240 256 195 148 190 253 309 336 314 253 157 151 154 152 150 148 147 147 148 149 148
285 274 253 246 252 258 269 286 281 241 293 358 12 79 130 211 247 261 255 283 315 325 345 340 315 265 173 181 186 169 190 232 200 197 225 182 164 199 216 208 169 142 146 156 171 190 201 242 229 203 198 190 196 201 185 181 182 201 194 142 160 171 160 193 188 183 213 225 277 319 142 194 264 324 323 323 118 122 118 129 138 138 139 140 141 143 144 143
281 273 256 250 254 262 275 280 255 216 269 336 9 132 195 214 246 281 301 332 322 327 338 327 309 266 175 188 185 168 181 214 200 208 222 178 173 187 197 207 190 157 137 163 198 189 198 237 233 207 213 192 191 199 180 168 182 208 166 130 187 187 146 152 183 174 171 175 311 9 97 229 119 10 355 41 93 110 119 127 127 128 133 135 136 138 139 138
279 270 259 254 257 263 275 257 207 182 202 281 222 191 216 235 269 266 337 348 319 321 336 333 327 8 162 185 188 183 188 187 175 189 239 181 174 185 193 203 194 174 159 174 211 171 182 242 257 201 220 217 193 184 177 178 184 185 176 181 197 164 131 121 190 191 109 133 228 95 125 180 126 47 29 76 92 103 120 126 127 130 133 134 134 135 136 134
280 270 259 261 274 265 208 192 180 172 182 212 205 210 231 250 270 281 318 326 313 315 336 347 348 2 20 163 212 186 186 192 166 169 239 214 186 191 195 205 193 181 172 168 218 207 156 245 268 196 210 228 201 186 190 187 170 159 198 199 144 122 116 104 145 334 69 137 231 219 149 166 166 180 112 109 107 113 121 122 125 127 128 129 130 133 134 133
280 273 263 276 309 245 193 179 176 175 180 210 227 237 239 245 276 303 308 307 307 312 333 348 306 350 25 16 341 250 179 192 178 170 202 227 233 202 184 202 204 189 179 167 192 272 129 237 277 210 201 228 194 181 203 205 186 175 183 167 127 155 211 121 148 166 142 161 181 52 170 177 185 195 154 137 134 132 125 123 127 124 122 127 128 130 132 133
280 286 268 304 325 211 184 183 188 184 189 210 217 230 253 274 276 279 279 279 286 295 302 260 229 334 24 161 313 340 287 209 190 177 176 192 235 216 188 192 202 196 186 167 179 255 140 136 286 255 215 227 181 176 202 211 229 83 142 147 151 165 169 169 169 147 156 176 109 112 181 219 236 204 167 156 156 150 139 134 131 121 118 125 129 130 130 132
299 301 273 317 316 207 177 181 188 188 206 216 219 248 270 287 279 272 272 272 271 274 275 246 207 255 321 279 269 290 322 321 189 180 183 189 212 236 205 195 191 197 192 174 175 218 177 151 251 295 302 224 199 200 187 182 186 153 147 167 176 164 147 160 171 131 136 150 137 138 190 252 247 204 177 160 151 150 146 138 126 120 120 124 128 128 128 132
347 305 282 326 334 174 168 173 183 187 215 222 236 258 261 273 279 283 286 284 279 271 267 261 237 218 223 303 300 257 290 324 226 186 215 196 184 228 215 204 188 188 192 188 184 189 173 160 197 281 324 196 236 242 122 155 209 182 163 178 175 156 135 135 210 269 132 135 156 154 179 252 256 188 159 149 140 139 135 127 121 123 125 127 128 129 130 131
350 292 286 320 332 171 168 167 179 186 198 219 231 245 255 267 272 280 286 285 283 274 261 249 233 210 153 206 255 254 249 291 238 205 223 203 194 224 219 206 196 189 179 175 196 186 150 127 171 244 239 212 257 274 136 159 218 197 177 180 158 137 129 141 188 244 185 143 137 124 147 239 270 248 150 141 134 132 127 122 120 123 127 128 128 129 129 128
310 285 287 314 325 175 172 175 188 179 205 237 237 245 254 266 271 273 278 278 280 282 270 254 235 209 155 203 224 228 240 243 222 223 230 228 237 288 233 196 190 188 164 158 194 185 154 128 166 255 295 292 302 322 3 134 133 142 209 172 139 150 166 163 174 181 175 171 127 95 132 241 280 259 140 132 129 130 130 127 124 124 128 130 131 131 129 127
303 289 281 308 318 170 174 197 168 179 230 236 241 258 258 262 263 262 272 276 276 290 289 275 236 179 177 194 199 211 224 210 247 246 237 250 248 9 13 345 178 160 154 180 184 173 183 186 121 122 316 320 329 341 343 351 60 118 218 192 154 155 158 163 161 140 187 218 155 142 180 233 236 140 130 129 129 131 133 134 131 129 132 134 135 133 132 132
317 298 273 310 316 175 189 317 116 178 251 241 257 270 259 262 264 258 266 271 265 265 275 279 254 164 164 162 159 246 215 170 240 288 312 312 279 38 11 350 356 133 150 195 179 164 177 178 124 137 167 190 198 195 234 292 330 327 289 236 178 153 152 165 138 145 202 234 109 142 167 146 138 136 132 134 135 134 136 136 135 135 137 138 136 134 133 135
330 315 296 348 73 180 222 282 257 194 271 267 276 264 248 263 274 268 264 263 260 251 247 265 279 134 123 123 120 286 260 172 289 307 301 314 302 307 360 349 349 93 103 171 171 153 139 152 152 151 163 182 185 186 250 327 66 348 327 319 271 153 129 119 107 164 184 128 48 200 148 135 148 147 140 142 142 140 141 139 139 140 141 139 135 133 130 128
320 313 334 350 355 188 231 262 233 208 239 268 302 285 274 284 297 289 274 271 279 268 235 250 315 81 92 88 112 210 303 355 343 315 298 290 294 318 353 348 341 41 73 101 145 124 97 158 181 154 155 173 142 65 349 11 92 80 334 331 301 175 111 107 142 198 160 113 24 235 144 138 159 161 150 151 148 145 147 144 142 142 141 136 132 130 127 125
321 291 282 297 289 192 194 255 251 247 253 260 277 294 291 291 296 295 290 310 324 322 5 37 358 41 71 65 78 147 337 7 344 317 324 339 343 347 349 333 329 16 67 81 65 95 115 165 213 139 117 111 89 60 20 50 91 3 7 352 315 257 134 136 180 192 170 148 175 182 159 151 163 165 158 156 150 146 146 145 143 142 138 133 130 128 127 126
329 305 285 282 263 247 254 271 273 266 255 249 256 264 271 280 285 286 290 327 335 326 14 87 345 11 28 39 66 106 148 81 326 294 312 357 15 21 12 339 323 344 35 73 35 64 108 92 306 116 104 86 79 71 52 58 61 356 359 9 349 20 125 127 129 158 172 167 161 161 157 150 156 158 150 145 142 139 139 142 143 143 139 134 131 130 130 128
330 320 303 293 275 263 259 260 253 242 250 250 250 259 263 272 289 301 295 266 264 296 348 73 325 353 359 8 70 136 208 165 207 247 224 87 17 30 63 78 304 321 358 70 46 23 75 84 335 73 92 66 72 79 64 52 63 22 354 12 19 42 84 95 98 103 100 118 132 133 125 107 125 130 126 131 136 136 139 143 145 146 142 137 135 134 132 130
333 332 322 307 284 283 283 269 216 173 228 252 246 289 304 284 305 324 303 258 232 272 342 346 326 348 354 349 9 232 258 230 224 233 207 161 112 84 106 142 262 309 347 49 51 25 76 101 12 58 91 16 20 76 72 46 46 26 353 4 13 34 85 100 134 135 124 125 125 123 121 127 131 125 125 134 140 142 144 144 144 145 143 140 139 136 132 132
344 345 341 329 288 304 340 334 308 177 213 243 266 308 308 286 294 317 308 304 332 4 7 355 331 322 316 311 292 261 270 297 286 273 184 116 100 101 107 43 345 329 334 60 61 44 98 111 71 84 99 9 351 81 82 49 37 356 308 338 343 342 69 73 35 99 131 138 139 144 154 153 140 133 132 138 143 143 142 142 144 144 141 139 137 134 131 132
Height
1513 1511 1510 1509 1508 1507 1506 1505 1503 1502 1501 1500 1499 1498 1497 1495 1494 1493 1493 1492 1491 1490 1490 1489 1488 1488 1488 1487 1487 1486 1486 1485 1485 1485 1482 1481 1484 1488 1489 1489 1490 1491 1491 1491 1492 1493 1493 1493 1494 1494 1495 1495 1495 1495 1495 1495 1495 1497 1498 1501 1503 1500 1496 1491 1489 1488 1485 1483 1477 1472 1470 1471 1473 1472 1472 1473 1473 1473 1477 1480 1481 1483 1485 1487 1491 1494 1496 1499
1512 1510 1509 1508 1507 1506 1505 1503 1502 1501 1500 1499 1498 1497 1495 1494 1493 1492 1492 1491 1490 1489 1488 1487 1487 1486 1486 1486 1485 1484 1484 1483 1483 1480 1478 1480 1483 1485 1486 1487 1489 1489 1489 1489 1491 1492 1492 1492 1493 1494 1494 1494 1494 1493 1494 1493 1493 1494 1495 1498 1498 1494 1489 1486 1486 1485 1484 1483 1479 1474 1472 1471 1472 1471 1471 1474 1477 1474 1478 1484 1483 1485 1489 1491 1493 1496 1498 1500
1510 1509 1508 1507 1506 1504 1503 1502 1501 1500 1498 1498 1496 1495 1494 1493 1492 1491 1491 1490 1489 1488 1487 1486 1485 1485 1485 1484 1484 1483 1482 1482 1479 1475 1475 1479 1481 1482 1484 1485 1487 1488 1488 1488 1490 1491 1491 1491 1493 1493 1494 1493 1493 1492 1492 1492 1491 1491 1492 1496 1492 1488 1485 1484 1484 1483 1482 1481 1478 1476 1471 1470 1471 1471 1470 1473 1478 1476 1477 1483 1483 1486 1490 1493 1495 1497 1499 1501
1509 1508 1507 1506 1504 1503 1502 1500 1499 1498 1497 1496 1495 1494 1493 1492 1491 1490 1489 1488 1487 1487 1486 1485 1484 1483 1483 1482 1483 1482 1482 1481 1476 1473 1474 1475 1476 1478 1480 1482 1485 1486 1486 1487 1489 1489 1490 1490 1492 1492 1493 1493 1491 1491 1491 1490 1490 1488 1488 1491 1488 1486 1485 1483 1483 1482 1481 1479 1477 1475 1471 1471 1470 1470 1470 1471 1478 1482 1478 1476 1477 1481 1485 1490 1494 1496 1499 1501
1509 1507 1506 1505 1503 1502 1501 1499 1498 1497 1496 1495 1494 1493 1491 1491 1490 1489 1488 1487 1486 1485 1484 1483 1482 1482 1481 1481 1482 1482 1483 1481 1473 1472 1473 1472 1473 1474 1476 1479 1482 1483 1485 1486 1487 1488 1488 1489 1490 1491 1492 1491 1490 1490 1488 1487 1489 1487 1485 1485 1484 1484 1484 1481 1481 1481 1481 1478 1475 1473 1472 1473 1471 1470 1471 1471 1476 1479 1476 1473 1473 1475 1480 1484 1489 1494 1498 1500
1508 1506 1505 1503 1502 1501 1499 1497 1496 1495 1494 1493 1493 1491 1490 1489 1488 1488 1487 1486 1485 1484 1483 1482 1481 1481 1480 1480 1481 1481 1482 1477 1470 1471 1471 1471 1471 1472 1474 1476 1479 1481 1483 1484 1485 1486 1487 1488 1489 1490 1490 1489 1489 1488 1486 1485 1487 1488 1484 1482 1482 1482 1481 1480 1479 1480 1480 1478 1475 1473 1471 1472 1472 1473 1473 1471 1472 1473 1473 1475 1474 1475 1479 1483 1487 1492 1496 1499
1506 1505 1503 1502 1501 1499 1497 1496 1495 1494 1493 1492 1491 1490 1489 1488 1487 1486 1485 1484 1483 1482 1482 1480 1480 1479 1478 1479 1479 1480 1479 1473 1470 1471 1470 1470 1471 1472 1473 1475 1477 1479 1480 1482 1483 1484 1485 1486 1487 1488 1489 1488 1487 1485 1484 1484 1485 1487 1484 1481 1481 1480 1479 1478 1478 1479 1479 1478 1475 1473 1471 1471 1472 1473 1474 1472 1470 1471 1475 1478 1479 1480 1483 1485 1489 1492 1495 1498
1505 1503 1502 1501 1499 1498 1496 1495 1493 1492 1491 1490 1490 1488 1487 1486 1485 1484 1483 1483 1481 1481 1480 1479 1479 1478 1477 1478 1478 1479 1475 1469 1469 1470 1470 1470 1470 1472 1473 1474 1476 1477 1478 1479 1480 1482 1483 1484 1485 1486 1487 1486 1485 1483 1483 1484 1484 1484 1483 1481 1479 1478 1477 1476 1477 1478 1477 1475 1473 1472 1470 1471 1473 1472 1473 1474 1472 1472 1476 1480 1482 1483 1486 1488 1490 1492 1495 1499
1504 1502 1500 1499 1498 1496 1495 1493 1492 1491 1490 1489 1488 1487 1486 1485 1484 1483 1482 1481 1480 1479 1478 1478 1478 1477 1477 1476 1478 1477 1467 1464 1469 1470 1469 1469 1469 1471 1473 1473 1475 1475 1476 1477 1479 1481 1482 1482 1482 1484 1485 1484 1484 1482 1481 1484 1484 1480 1480 1479 1477 1476 1474 1475 1475 1476 1476 1474 1472 1471 1470 1470 1473 1474 1477 1478 1476 1475 1477 1482 1485 1485 1487 1490 1491 1493 1495 1498
1502 1501 1499 1498 1496 1495 1493 1492 1491 1489 1488 1487 1486 1485 1484 1483 1482 1481 1480 1479 1478 1477 1477 1477 1476 1476 1477 1475 1478 1474 1461 1462 1469 1468 1468 1468 1468 1470 1472 1473 1473 1474 1475 1476 1477 1478 1479 1479 1480 1483 1484 1483 1482 1481 1480 1483 1481 1477 1477 1477 1476 1474 1473 1473 1473 1473 1474 1473 1472 1472 1472 1470 1470 1475 1482 1483 1478 1478 1480 1484 1487 1488 1489 1491 1493 1494 1496 1497
1501 1499 1498 1496 1495 1493 1492 1491 1489 1488 1487 1485 1484 1483 1481 1480 1480 1479 1478 1477 1476 1476 1475 1475 1475 1475 1475 1475 1476 1468 1458 1461 1465 1465 1467 1467 1468 1469 1470 1473 1473 1473 1473 1474 1475 1475 1477 1478 1480 1484 1484 1482 1481 1479 1478 1479 1478 1476 1476 1476 1474 1473 1471 1471 1471 1472 1473 1473 1471 1471 1472 1470 1470 1475 1480 1482 1481 1479 1481 1485 1488 1489 1491 1492 1494 1495 1496 1498
1500 1498 1496 1495 1493 1492 1490 1489 1487 1486 1484 1483 1482 1480 1479 1478 1477 1477 1476 1475 1474 1474 1474 1474 1474 1473 1473 1473 1468 1459 1457 1461 1462 1463 1465 1465 1467 1467 1468 1470 1471 1472 1472 1473 1473 1474 1476 1477 1480 1483 1481 1481 1480 1479 1477 1476 1476 1475 1475 1476 1474 1472 1471 1469 1469 1470 1471 1472 1470 1470 1476 1476 1472 1475 1477 1479 1483 1481 1481 1485 1488 1490 1492 1493 1495 1496 1497 1498
1498 1497 1495 1493 1492 1490 1489 1487 1485 1484 1482 1481 1479 1478 1477 1475 1475 1475 1474 1473 1472 1472 1472 1472 1472 1472 1473 1466 1456 1454 1458 1461 1461 1461 1462 1464 1465 1465 1466 1468 1468 1471 1472 1472 1472 1473 1475 1476 1479 1480 1479 1480 1480 1478 1475 1473 1475 1474 1473 1475 1475 1476 1473 1468 1467 1468 1469 1471 1468 1471 1482 1482 1475 1475 1477 1478 1482 1482 1482 1485 1488 1490 1491 1492 1494 1496 1497 1499
1497 1495 1494 1492 1490 1489 1487 1485 1484 1482 1480 1478 1477 1476 1474 1473 1473 1472 1472 1471 1470 1471 1470 1471 1471 1471 1470 1460 1451 1455 1459 1459 1458 1458 1459 1462 1463 1463 1465 1466 1466 1468 1470 1471 1471 1472 1474 1476 1479 1479 1479 1479 1478 1478 1476 1474 1474 1473 1474 1474 1475 1480 1476 1467 1465 1467 1469 1470 1466 1471 1483 1482 1474 1475 1477 1477 1479 1480 1482 1485 1488 1490 1490 1491 1493 1495 1497 1499
1495 1494 1492 1491 1489 1487 1485 1484 1482 1480 1478 1476 1474 1473 1471 1471 1471 1470 1470 1469 1469 1469 1468 1469 1469 1469 1468 1458 1451 1453 1454 1454 1453 1454 1458 1460 1462 1462 1462 1465 1466 1466 1469 1470 1471 1472 1474 1476 1478 1478 1477 1478 1478 1479 1478 1477 1474 1473 1479 1480 1476 1479 1476 1467 1463 1464 1467 1468 1465 1470 1480 1478 1472 1473 1475 1477 1478 1478 1481 1485 1487 1489 1490 1490 1491 1494 1497 1498
1494 1492 1491 1489 1487 1486 1484 1482 1480 1478 1476 1474 1472 1471 1469 1469 1468 1468 1468 1467 1468 1467 1467 1468 1467 1469 1468 1457 1449 1449 1449 1449 1450 1453 1456 1457 1459 1460 1461 1463 1464 1465 1467 1468 1470 1472 1473 1474 1475 1475 1475 1476 1477 1479 1480 1482 1479 1475 1480 1483 1477 1477 1477 1471 1464 1461 1463 1466 1466 1469 1475 1475 1471 1470 1473 1476 1478 1478 1480 1484 1486 1488 1489 1489 1491 1493 1495 1497
1492 1490 1489 1487 1486 1484 1482 1481 1479 1476 1474 1472 1470 1468 1467 1467 1466 1466 1466 1467 1467 1466 1467 1467 1467 1469 1463 1451 1446 1446 1445 1447 1449 1451 1452 1454 1457 1458 1460 1461 1462 1463 1465 1467 1469 1469 1471 1472 1473 1473 1473 1473 1474 1477 1484 1488 1486 1480 1480 1481 1477 1475 1475 1474 1468 1462 1461 1465 1467 1468 1470 1471 1467 1468 1473 1475 1477 1477 1479 1483 1485 1487 1488 1488 1489 1491 1493 1495
1490 1489 1487 1486 1484 1483 1481 1479 1477 1475 1473 1470 1468 1467 1466 1465 1465 1465 1465 1466 1465 1466 1467 1466 1468 1468 1453 1444 1445 1444 1443 1445 1446 1448 1450 1453 1455 1457 1458 1459 1460 1462 1463 1464 1465 1466 1468 1469 1470 1472 1471 1471 1472 1475 1483 1485 1482 1482 1481 1480 1478 1474 1473 1473 1469 1463 1462 1465 1468 1469 1470 1468 1466 1468 1472 1473 1476 1477 1478 1480 1483 1485 1486 1487 1488 1489 1492 1493
1487 1487 1486 1484 1483 1481 1479 1478 1476 1473 1471 1469 1467 1465 1464 1464 1463 1463 1464 1465 1464 1464 1464 1461 1463 1460 1445 1440 1444 1443 1442 1445 1445 1446 1448 1450 1453 1455 1457 1458 1459 1460 1461 1463 1463 1463 1465 1467 1469 1471 1470 1469 1468 1470 1475 1475 1474 1476 1477 1477 1477 1475 1473 1471 1467 1462 1462 1466 1468 1469 1469 1467 1466 1467 1470 1472 1475 1477 1477 1479 1482 1484 1485 1485 1487 1489 1491 1494
1485 1485 1484 1482 1481 1480 1478 1476 1474 1472 1470 1468 1466 1464 1463 1463 1463 1463 1462 1462 1460 1457 1456 1454 1454 1452 1444 1440 1443 1443 1442 1442 1443 1444 1446 1448 1452 1453 1455 1456 1457 1459 1460 1461 1461 1460 1463 1467 1467 1466 1466 1465 1465 1467 1470 1470 1470 1471 1473 1475 1474 1474 1472 1467 1465 1462 1460 1466 1467 1464 1466 1467 1465 1465 1468 1471 1474 1477 1477 1479 1482 1483 1484 1484 1487 1490 1492 1495
1483 1483 1482 1480 1479 1478 1476 1475 1473 1471 1470 1468 1466 1465 1464 1463 1463 1462 1461 1458 1454 1452 1451 1450 1450 1448 1442 1438 1440 1444 1444 1441 1440 1441 1444 1447 1450 1451 1452 1453 1456 1458 1458 1459 1460 1459 1461 1464 1463 1461 1463 1463 1463 1466 1467 1468 1469 1470 1472 1474 1474 1474 1471 1464 1463 1461 1460 1465 1465 1461 1465 1467 1463 1461 1465 1468 1472 1476 1476 1478 1480 1481 1482 1484 1487 1490 1492 1495
1481 1480 1479 1479 1477 1476 1475 1473 1472 1470 1469 1467 1466 1465 1464 1463 1463 1463 1462 1456 1448 1446 1447 1446 1447 1444 1438 1436 1438 1444 1447 1444 1439 1437 1441 1445 1446 1447 1448 1451 1455 1456 1457 1458 1459 1460 1461 1460 1458 1459 1461 1461 1463 1464 1465 1467 1468 1470 1472 1475 1476 1473 1469 1465 1462 1460 1460 1465 1464 1462 1466 1467 1461 1459 1463 1465 1468 1472 1473 1474 1476 1477 1480 1483 1486 1488 1491 1494
1478 1478 1478 1477 1476 1475 1473 1472 1471 1469 1468 1466 1465 1464 1463 1463 1463 1462 1462 1457 1445 1439 1441 1440 1439 1438 1433 1433 1437 1442 1445 1443 1440 1436 1437 1441 1442 1444 1446 1449 1453 1455 1455 1456 1456 1460 1462 1458 1455 1458 1459 1460 1462 1462 1464 1466 1467 1469 1472 1476 1475 1470 1470 1470 1464 1460 1460 1461 1460 1460 1464 1465 1462 1461 1462 1463 1464 1467 1471 1473 1473 1472 1473 1477 1481 1484 1487 1491
1475 1476 1476 1475 1474 1473 1471 1470 1469 1467 1466 1465 1464 1463 1462 1461 1461 1461 1460 1457 1444 1433 1432 1431 1432 1431 1427 1428 1435 1439 1440 1439 1437 1434 1434 1438 1439 1442 1445 1446 1451 1454 1452 1452 1453 1456 1457 1452 1452 1456 1457 1458 1461 1461 1463 1466 1468 1468 1468 1472 1472 1467 1469 1469 1465 1462 1460 1458 1456 1460 1471 1469 1462 1463 1462 1460 1462 1463 1468 1473 1475 1474 1473 1476 1481 1485 1488 1490
1473 1473 1473 1473 1473 1471 1470 1469 1466 1466 1465 1464 1464 1462 1461 1459 1459 1460 1459 1457 1447 1432 1426 1426 1426 1423 1420 1427 1433 1434 1437 1435 1432 1431 1432 1435 1437 1440 1442 1444 1449 1450 1450 1451 1452 1454 1454 1450 1450 1454 1455 1456 1458 1460 1461 1463 1468 1468 1464 1465 1466 1463 1466 1467 1465 1465 1468 1468 1458 1460 1480 1478 1462 1462 1462 1459 1463 1464 1466 1471 1475 1478 1478 1480 1484 1487 1490 1493
1471 1471 1471 1471 1471 1469 1469 1467 1465 1465 1463 1463 1463 1460 1461 1458 1458 1460 1458 1460 1451 1431 1424 1424 1422 1418 1418 1425 1429 1433 1438 1432 1426 1428 1430 1433 1435 1437 1441 1443 1444 1446 1448 1450 1451 1451 1450 1449 1448 1450 1453 1455 1456 1458 1457 1459 1469 1470 1460 1458 1460 1461 1466 1467 1466 1469 1475 1473 1457 1454 1473 1477 1465 1461 1458 1457 1462 1464 1467 1471 1474 1477 1480 1481 1484 1487 1490 1493
1468 1469 1469 1469 1469 1468 1467 1465 1464 1464 1462 1463 1461 1460 1460 1457 1459 1459 1459 1465 1451 1427 1422 1423 1420 1417 1417 1421 1424 1431 1436 1427 1422 1426 1427 1430 1433 1434 1439 1440 1441 1443 1444 1448 1452 1447 1444 1448 1448 1448 1451 1454 1455 1456 1454 1456 1466 1465 1454 1454 1458 1459 1466 1466 1464 1469 1470 1465 1459 1453 1460 1469 1468 1461 1456 1456 1461 1465 1469 1474 1475 1477 1480 1482 1485 1487 1488 1490
1466 1466 1466 1467 1467 1466 1466 1464 1463 1462 1462 1461 1459 1459 1458 1457 1458 1458 1463 1464 1440 1418 1418 1420 1418 1417 1416 1419 1423 1427 1427 1422 1423 1425 1425 1428 1430 1431 1436 1436 1437 1440 1439 1444 1451 1444 1440 1445 1446 1446 1450 1452 1451 1450 1450 1454 1459 1456 1451 1453 1455 1456 1462 1461 1462 1466 1463 1465 1467 1458 1456 1470 1470 1459 1457 1459 1462 1469 1473 1474 1477 1478 1480 1482 1484 1487 1489 1491
1464 1464 1464 1465 1465 1465 1464 1463 1461 1461 1461 1459 1458 1458 1456 1457 1457 1457 1465 1456 1425 1411 1415 1415 1416 1417 1417 1420 1423 1424 1423 1422 1423 1423 1423 1427 1428 1429 1432 1433 1434 1438 1437 1440 1445 1441 1438 1440 1441 1443 1447 1447 1446 1446 1447 1450 1452 1450 1450 1452 1452 1455 1458 1457 1461 1463 1463 1471 1473 1460 1455 1468 1472 1462 1461 1464 1465 1471 1474 1474 1476 1477 1479 1482 1483 1486 1489 1491
1462 1461 1462 1463 1462 1463 1463 1461 1460 1460 1460 1458 1458 1457 1455 1457 1457 1461 1466 1446 1417 1412 1414 1414 1415 1415 1417 1421 1424 1425 1423 1422 1422 1421 1423 1424 1426 1428 1429 1431 1433 1436 1437 1438 1440 1438 1435 1437 1438 1439 1440 1441 1442 1443 1443 1446 1448 1448 1450 1452 1453 1457 1456 1456 1460 1461 1468 1476 1469 1458 1453 1460 1470 1466 1461 1465 1465 1465 1470 1475 1478 1478 1479 1482 1483 1486 1488 1490
1460 1459 1460 1461 1461 1461 1460 1459 1459 1460 1460 1458 1457 1457 1456 1456 1459 1464 1455 1430 1416 1417 1414 1415 1415 1413 1417 1420 1422 1424 1423 1422 1421 1421 1422 1422 1424 1427 1428 1431 1433 1436 1439 1440 1440 1438 1435 1436 1435 1434 1435 1437 1439 1442 1442 1442 1445 1447 1448 1452 1458 1462 1461 1462 1464 1464 1475 1477 1461 1453 1453 1455 1466 1466 1461 1465 1464 1459 1461 1468 1475 1477 1478 1480 1482 1484 1487 1489
1458 1457 1458 1458 1459 1459 1458 1457 1458 1459 1459 1457 1457 1455 1456 1460 1462 1458 1441 1422 1421 1421 1415 1414 1414 1413 1417 1418 1420 1423 1422 1421 1420 1420 1422 1421 1424 1426 1426 1428 1431 1438 1445 1443 1441 1441 1438 1434 1432 1432 1432 1433 1437 1442 1443 1442 1444 1447 1449 1454 1464 1471 1471 1474 1475 1472 1475 1471 1454 1450 1454 1458 1465 1468 1467 1468 1464 1461 1459 1459 1464 1470 1474 1478 1480 1483 1486 1489
1456 1455 1456 1456 1457 1457 1456 1456 1457 1458 1457 1456 1456 1454 1457 1464 1459 1446 1436 1429 1426 1420 1414 1415 1414 1413 1416 1418 1419 1420 1421 1421 1419 1421 1422 1421 1423 1425 1425 1426 1427 1434 1441 1442 1443 1444 1442 1436 1431 1431 1431 1429 1432 1440 1444 1445 1444 1447 1450 1455 1465 1472 1476 1481 1480 1477 1473 1464 1454 1449 1452 1463 1470 1470 1471 1467 1461 1462 1463 1461 1463 1466 1470 1476 1479 1483 1486 1488
1454 1454 1454 1454 1455 1454 1455 1456 1456 1457 1457 1456 1455 1456 1462 1465 1452 1437 1433 1431 1425 1419 1418 1418 1415 1412 1414 1416 1415 1416 1421 1422 1419 1421 1422 1422 1425 1426 1426 1426 1425 1428 1433 1438 1442 1443 1446 1442 1430 1428 1429 1426 1427 1432 1435 1438 1441 1443 1442 1448 1457 1460 1465 1473 1473 1472 1469 1461 1456 1455 1460 1473 1478 1472 1469 1466 1461 1462 1467 1470 1470 1471 1475 1478 1481 1485 1488 1489
1452 1452 1452 1452 1452 1452 1453 1454 1455 1455 1457 1456 1455 1458 1461 1458 1447 1438 1434 1431 1427 1423 1420 1418 1414 1411 1413 1414 1412 1413 1417 1420 1419 1421 1421 1422 1425 1425 1425 1425 1425 1426 1430 1437 1440 1437 1441 1439 1425 1422 1424 1422 1424 1426 1426 1432 1439 1440 1437 1443 1451 1448 1448 1460 1465 1462 1459 1457 1462 1470 1476 1480 1478 1473 1470 1467 1464 1465 1470 1474 1475 1476 1479 1481 1483 1487 1488 1490
1450 1450 1450 1449 1450 1451 1452 1452 1453 1454 1455 1456 1457 1458 1456 1449 1442 1438 1434 1431 1431 1427 1423 1420 1414 1412 1414 1414 1412 1412 1413 1415 1418 1421 1421 1420 1421 1422 1422 1421 1421 1424 1427 1433 1435 1433 1438 1435 1421 1419 1422 1419 1422 1422 1422 1429 1435 1437 1439 1441 1441 1437 1439 1452 1463 1461 1455 1459 1473 1483 1484 1481 1478 1476 1473 1470 1469 1470 1473 1476 1478 1479 1480 1481 1484 1487 1488 1490
1449 1448 1448 1447 1448 1450 1451 1451 1452 1453 1455 1456 1457 1455 1451 1445 1439 1437 1434 1433 1432 1429 1429 1428 1421 1418 1420 1418 1414 1413 1412 1414 1417 1420 1421 1420 1419 1419 1418 1418 1418 1420 1423 1427 1429 1428 1432 1432 1421 1418 1421 1418 1418 1420 1419 1421 1425 1432 1438 1435 1433 1437 1439 1444 1457 1465 1462 1466 1481 1487 1482 1480 1480 1479 1477 1474 1475 1475 1475 1477 1480 1482 1483 1483 1485 1487 1488 1490
1448 1447 1447 1446 1447 1447 1449 1451 1451 1453 1454 1456 1456 1452 1447 1443 1439 1437 1436 1435 1433 1430 1432 1433 1427 1422 1424 1424 1420 1414 1413 1415 1417 1419 1420 1420 1418 1415 1415 1416 1415 1416 1419 1423 1427 1426 1428 1432 1423 1415 1418 1417 1415 1420 1423 1420 1419 1423 1427 1426 1432 1444 1448 1446 1455 1465 1466 1469 1483 1488 1483 1479 1477 1476 1476 1476 1477 1477 1477 1479 1481 1483 1485 1486 1487 1488 1489 1491
1447 1447 1446 1445 1445 1445 1447 1449 1451 1452 1454 1454 1455 1452 1446 1442 1439 1437 1436 1434 1433 1432 1432 1432 1430 1426 1425 1425 1423 1418 1415 1416 1417 1417 1418 1419 1417 1412 1410 1412 1412 1414 1416 1419 1425 1425 1426 1433 1428 1416 1416 1416 1416 1421 1427 1425 1421 1420 1422 1423 1428 1436 1442 1445 1449 1456 1461 1467 1479 1487 1488 1482 1474 1472 1472 1472 1474 1476 1476 1479 1481 1484 1487 1488 1490 1490 1490 1492
1447 1447 1445 1444 1444 1445 1446 1448 1451 1452 1453 1452 1453 1450 1445 1442 1438 1435 1434 1433 1432 1431 1429 1428 1428 1428 1426 1423 1423 1420 1417 1416 1415 1415 1415 1415 1415 1412 1409 1409 1410 1412 1414 1417 1421 1423 1425 1432 1431 1422 1416 1419 1421 1420 1423 1425 1423 1423 1426 1428 1429 1429 1433 1439 1444 1447 1451 1459 1473 1485 1490 1482 1469 1467 1470 1470 1473 1475 1475 1477 1480 1483 1487 1490 1492 1492 1492 1494
1447 1447 1445 1443 1444 1445 1446 1449 1450 1451 1452 1451 1450 1448 1445 1441 1437 1433 1432 1432 1430 1428 1426 1425 1424 1425 1425 1424 1422 1420 1419 1417 1415 1414 1413 1412 1413 1413 1408 1406 1408 1409 1412 1417 1419 1420 1424 1429 1430 1426 1421 1422 1423 1418 1418 1421 1421 1421 1424 1426 1428 1430 1434 1443 1450 1446 1441 1448 1465 1476 1481 1478 1469 1466 1469 1472 1474 1476 1477 1478 1480 1484 1487 1490 1492 1493 1494 1497
1447 1447 1444 1443 1443 1444 1445 1447 1448 1449 1450 1449 1448 1446 1443 1440 1436 1433 1431 1429 1428 1425 1423 1421 1419 1421 1424 1424 1423 1421 1420 1418 1414 1413 1412 1410 1409 1408 1403 1402 1404 1405 1409 1415 1416 1416 1419 1424 1428 1427 1424 1423 1419 1415 1416 1418 1418 1418 1419 1420 1424 1427 1432 1442 1450 1446 1439 1446 1458 1463 1467 1472 1470 1466 1467 1471 1474 1477 1479 1480 1481 1485 1487 1489 1491 1493 1496 1499
1448 1446 1443 1442 1443 1444 1445 1447 1447 1448 1448 1446 1445 1443 1441 1439 1436 1433 1429 1427 1425 1422 1419 1417 1415 1417 1421 1421 1421 1420 1419 1417 1413 1410 1409 1408 1406 1403 1401 1401 1402 1404 1407 1412 1414 1413 1416 1423 1427 1427 1424 1420 1414 1410 1410 1412 1415 1419 1418 1418 1421 1424 1427 1432 1437 1438 1438 1445 1453 1458 1466 1472 1470 1467 1467 1470 1474 1477 1480 1482 1483 1486 1488 1489 1492 1494 1497 1500
1447 1445 1443 1443 1442 1443 1445 1445 1446 1448 1446 1444 1443 1440 1439 1437 1433 1431 1429 1426 1424 1422 1418 1415 1413 1413 1416 1418 1418 1418 1417 1416 1413 1409 1408 1407 1405 1402 1401 1400 1400 1402 1405 1408 1409 1410 1417 1423 1427 1430 1432 1428 1422 1419 1416 1414 1415 1419 1419 1417 1417 1420 1423 1428 1432 1434 1439 1446 1446 1450 1465 1473 1469 1468 1469 1470 1475 1478 1480 1483 1484 1486 1489 1491 1493 1495 1497 1500
1447 1445 1443 1443 1442 1442 1443 1443 1444 1446 1445 1444 1443 1439 1437 1434 1429 1428 1428 1424 1422 1422 1419 1414 1410 1409 1412 1415 1416 1416 1415 1415 1414 1410 1407 1406 1404 1401 1401 1400 1399 1399 1402 1404 1404 1407 1414 1420 1423 1429 1437 1439 1436 1433 1429 1425 1421 1421 1419 1417 1417 1419 1421 1428 1435 1437 1441 1449 1448 1449 1463 1472 1470 1469 1471 1472 1476 1479 1481 1484 1485 1487 1489 1491 1492 1495 1497 1499
1447 1446 1444 1443 1443 1443 1443 1442 1444 1445 1445 1444 1442 1437 1435 1432 1427 1425 1425 1421 1417 1416 1416 1413 1408 1407 1410 1413 1416 1417 1414 1413 1414 1412 1409 1407 1405 1402 1401 1401 1399 1398 1400 1401 1402 1405 1412 1417 1418 1421 1427 1432 1433 1431 1430 1427 1427 1430 1427 1422 1420 1421 1421 1427 1435 1438 1439 1448 1455 1456 1459 1467 1470 1469 1470 1472 1475 1479 1481 1483 1485 1487 1489 1490 1492 1494 1496 1499
1448 1447 1445 1445 1444 1444 1443 1443 1443 1443 1443 1443 1441 1436 1433 1432 1428 1424 1421 1418 1414 1410 1410 1410 1408 1408 1410 1412 1414 1417 1415 1413 1413 1412 1410 1408 1406 1404 1402 1401 1400 1398 1398 1400 1402 1405 1411 1417 1418 1418 1421 1424 1425 1428 1429 1427 1431 1436 1434 1429 1424 1422 1424 1430 1434 1436 1437 1444 1458 1461 1457 1462 1469 1467 1466 1468 1471 1475 1480 1482 1484 1487 1488 1490 1492 1494 1496 1499
1448 1447 1446 1446 1446 1444 1443 1443 1442 1442 1441 1441 1440 1437 1434 1433 1430 1426 1420 1415 1413 1410 1408 1410 1410 1410 1411 1411 1413 1415 1416 1416 1415 1413 1411 1410 1408 1406 1404 1402 1401 1399 1399 1401 1402 1405 1411 1418 1420 1420 1424 1426 1426 1428 1430 1430 1434 1438 1436 1434 1429 1422 1422 1428 1431 1433 1433 1436 1449 1457 1456 1458 1464 1465 1466 1467 1467 1471 1476 1479 1483 1487 1488 1491 1493 1494 1497 1500
1449 1447 1446 1446 1445 1443 1441 1442 1441 1440 1440 1440 1439 1436 1435 1433 1430 1427 1422 1417 1415 1413 1411 1412 1413 1412 1411 1411 1413 1415 1416 1418 1418 1415 1413 1413 1412 1411 1410 1408 1405 1402 1400 1401 1404 1406 1412 1421 1424 1421 1426 1432 1432 1432 1434 1435 1437 1439 1437 1436 1433 1425 1421 1425 1430 1434 1432 1431 1439 1450 1454 1457 1460 1463 1467 1469 1470 1472 1476 1479 1483 1486 1489 1491 1494 1495 1498 1501
1449 1448 1446 1445 1443 1441 1440 1439 1439 1439 1439 1438 1438 1434 1432 1431 1428 1426 1423 1419 1418 1415 1412 1413 1414 1412 1412 1411 1413 1415 1416 1417 1418 1415 1413 1414 1413 1413 1414 1415 1412 1406 1402 1403 1406 1407 1411 1423 1427 1421 1426 1437 1436 1434 1439 1440 1440 1441 1438 1435 1432 1429 1427 1428 1433 1438 1439 1440 1444 1449 1457 1461 1462 1463 1467 1472 1475 1476 1478 1481 1483 1486 1488 1491 1494 1497 1498 1501
1450 1448 1447 1445 1442 1439 1438 1437 1436 1438 1437 1436 1436 1433 1431 1429 1428 1427 1423 1418 1417 1416 1413 1414 1414 1412 1412 1413 1414 1415 1415 1415 1415 1412 1411 1412 1412 1412 1412 1415 1415 1411 1406 1405 1407 1408 1411 1423 1427 1423 1429 1440 1439 1437 1440 1440 1438 1439 1439 1437 1435 1433 1433 1434 1434 1436 1440 1447 1451 1454 1459 1463 1463 1465 1469 1473 1477 1479 1480 1482 1484 1487 1490 1492 1495 1498 1499 1500
1449 1447 1446 1445 1442 1438 1437 1436 1436 1436 1436 1435 1434 1433 1432 1429 1426 1427 1424 1418 1415 1415 1415 1415 1415 1414 1414 1414 1414 1413 1413 1414 1413 1412 1411 1411 1411 1412 1412 1413 1413 1412 1410 1407 1409 1413 1414 1419 1425 1426 1434 1446 1447 1440 1438 1439 1441 1442 1441 1444 1444 1439 1437 1437 1436 1435 1436 1442 1449 1451 1453 1457 1459 1463 1469 1474 1477 1479 1481 1483 1485 1488 1490 1493 1496 1498 1499 1501